AFR249 RPLL-LFPG

Flight info

Callsign AFR249
Flight time N/A
Altitude 34000
Route SIRCA2R SIRCA L628 DODUS W3 AKOTA A583 SABNO DCT LEGOD DCT BEKOL/K0943S1040 A461 SHL W22 TEPID W24 OSNOV G586 QP B330 ELKAL W179 IGNAK/K0932S1010 W179 WFX/K0926S1040 W179 OMBON Y1 DUMIN/K0913S1100 Y1 SADAN W186 KAMUD/K0898F360 L141 TISIB L163 SR N193 OGOLI T898 NUHEF/K0900F380 T898 DARVA/N0486F380 B476 METKA L88 RASAM N199 EDATA M11 REBLO DCT CRM DCT MAKOL/N0482F400 DCT ORTIP DCT MOPUG DCT ARSIN DCT RENKA L610 STAUB/N0429F240 L610 MAMOR DCT ASPAT DCT VIBOM DCT IDOSA DCT TOLVU DCT RAPOR DCT VEDUS
Aircraft A359/H-SDE2E3GHIJ3J4J5LM1ORWXY/LB1D1

Departure

Time N/A
Airport Ninoy Aquino International Airport (RPLL)

Arrival

Time 2026-05-05 18:24
Airport Charles de Gaulle International Airport (LFPG)
Time Latitude Longitude Altitude Speed Heading
2026-05-05 17:52 49.69932 5.68297 38923 ft 471 kts 248°
2026-05-05 17:53 49.68795 5.63545 38294 ft 472 kts 248°
2026-05-05 17:53 49.67655 5.58796 37612 ft 472 kts 248°
2026-05-05 17:53 49.66520 5.54041 36987 ft 472 kts 248°
2026-05-05 17:53 49.65388 5.49278 36348 ft 473 kts 248°
2026-05-05 17:54 49.64257 5.44505 35699 ft 473 kts 248°
2026-05-05 17:54 49.63510 5.41346 35266 ft 474 kts 248°
2026-05-05 17:54 49.62382 5.36571 34581 ft 476 kts 247°
2026-05-05 17:54 49.61278 5.31725 33823 ft 481 kts 248°
2026-05-05 17:55 49.60230 5.26821 33156 ft 481 kts 249°
2026-05-05 17:55 49.59455 5.21811 32581 ft 481 kts 259°
2026-05-05 17:55 49.59193 5.16672 32037 ft 481 kts 268°
2026-05-05 17:55 49.59210 5.11520 31464 ft 480 kts 269°
2026-05-05 17:56 49.59261 5.06378 30910 ft 479 kts 269°
2026-05-05 17:56 49.59309 5.01264 30335 ft 477 kts 269°
2026-05-05 17:56 49.59351 4.96150 29747 ft 476 kts 269°
2026-05-05 17:56 49.59389 4.91070 29148 ft 473 kts 269°
2026-05-05 17:57 49.59425 4.86018 28591 ft 469 kts 269°
2026-05-05 17:57 49.59458 4.81015 28044 ft 466 kts 269°
2026-05-05 17:57 49.59490 4.76048 27539 ft 461 kts 269°
2026-05-05 17:57 49.59519 4.71130 27057 ft 456 kts 269°
2026-05-05 17:58 49.59542 4.66259 26583 ft 452 kts 269°
2026-05-05 17:58 49.59563 4.61449 26110 ft 448 kts 269°
2026-05-05 17:58 49.59581 4.56670 25638 ft 444 kts 269°
2026-05-05 17:58 49.59599 4.51935 25175 ft 440 kts 269°
2026-05-05 17:59 49.59614 4.47239 24710 ft 436 kts 269°
2026-05-05 17:59 49.59627 4.42597 24250 ft 432 kts 269°
2026-05-05 17:59 49.59639 4.37985 23801 ft 428 kts 269°
2026-05-05 17:59 49.59648 4.33403 23341 ft 425 kts 269°
2026-05-05 18:00 49.59656 4.28869 22839 ft 421 kts 269°
2026-05-05 18:00 49.59660 4.24380 22397 ft 417 kts 269°
2026-05-05 18:00 49.59665 4.19924 21962 ft 414 kts 269°
2026-05-05 18:00 49.59667 4.15500 21526 ft 411 kts 268°
2026-05-05 18:01 49.59658 4.11123 21088 ft 407 kts 267°
2026-05-05 18:01 49.59280 4.06843 20679 ft 401 kts 252°
2026-05-05 18:01 49.58143 4.02970 20271 ft 394 kts 237°
2026-05-05 18:01 49.56672 3.99426 19850 ft 391 kts 235°
2026-05-05 18:02 49.55176 3.95941 19446 ft 388 kts 235°
2026-05-05 18:02 49.53697 3.92476 19030 ft 386 kts 235°
2026-05-05 18:02 49.52234 3.89035 18629 ft 383 kts 236°
2026-05-05 18:02 49.50783 3.85614 18225 ft 380 kts 236°
2026-05-05 18:03 49.49347 3.82225 17794 ft 377 kts 236°
2026-05-05 18:03 49.47954 3.78815 17387 ft 376 kts 239°
2026-05-05 18:03 49.46980 3.75091 16994 ft 376 kts 252°
2026-05-05 18:03 49.46319 3.71227 16596 ft 374 kts 254°
2026-05-05 18:04 49.45688 3.67363 16201 ft 372 kts 254°
2026-05-05 18:04 49.45052 3.63522 15817 ft 370 kts 254°
2026-05-05 18:04 49.44418 3.59706 15615 ft 369 kts 254°
2026-05-05 18:04 49.43778 3.55901 15467 ft 367 kts 253°
2026-05-05 18:05 49.43132 3.52108 15291 ft 366 kts 253°
2026-05-05 18:05 49.42753 3.49885 15198 ft 366 kts 253°
2026-05-05 18:05 49.42314 3.47315 15081 ft 365 kts 253°
2026-05-05 18:05 49.41563 3.43672 14918 ft 363 kts 247°
2026-05-05 18:06 49.40624 3.40085 14748 ft 362 kts 246°
2026-05-05 18:06 49.39983 3.37721 14639 ft 361 kts 246°
2026-05-05 18:06 49.38694 3.32968 14406 ft 360 kts 246°
2026-05-05 18:06 49.37739 3.29421 14251 ft 360 kts 246°
2026-05-05 18:07 49.36785 3.25878 14079 ft 359 kts 246°
2026-05-05 18:07 49.35831 3.22330 13912 ft 359 kts 246°
2026-05-05 18:07 49.34879 3.18792 13740 ft 358 kts 246°
2026-05-05 18:07 49.33931 3.15272 13574 ft 358 kts 246°
2026-05-05 18:08 49.32990 3.11792 13393 ft 357 kts 246°
2026-05-05 18:08 49.32027 3.08228 13228 ft 357 kts 246°
2026-05-05 18:08 49.31087 3.04758 13061 ft 357 kts 246°
2026-05-05 18:08 49.30136 3.01250 12899 ft 357 kts 246°
2026-05-05 18:09 49.29179 2.97733 12737 ft 357 kts 246°
2026-05-05 18:09 49.28226 2.94236 12560 ft 357 kts 246°
2026-05-05 18:09 49.27268 2.90723 12397 ft 356 kts 246°
2026-05-05 18:09 49.26307 2.87225 12224 ft 357 kts 246°
2026-05-05 18:10 49.25349 2.83721 12059 ft 357 kts 246°
2026-05-05 18:10 49.24616 2.81046 11933 ft 357 kts 246°
2026-05-05 18:10 49.23654 2.77529 11770 ft 357 kts 246°
2026-05-05 18:11 49.22695 2.74023 11604 ft 357 kts 246°
2026-05-05 18:11 49.21732 2.70519 11436 ft 357 kts 246°
2026-05-05 18:11 49.20784 2.67073 11301 ft 346 kts 247°
2026-05-05 18:11 49.19866 2.63738 11131 ft 333 kts 247°
2026-05-05 18:12 49.18984 2.60546 10984 ft 321 kts 247°
2026-05-05 18:12 49.18228 2.57403 10813 ft 309 kts 257°
2026-05-05 18:12 49.17977 2.54190 10563 ft 302 kts 269°
2026-05-05 18:12 49.17922 2.50987 10281 ft 301 kts 270°
2026-05-05 18:13 49.17875 2.47797 10013 ft 300 kts 269°
2026-05-05 18:13 49.17816 2.44612 9747 ft 299 kts 269°
2026-05-05 18:13 49.17752 2.41439 9451 ft 298 kts 270°
2026-05-05 18:13 49.17688 2.38286 9184 ft 296 kts 269°
2026-05-05 18:14 49.17611 2.35150 8926 ft 295 kts 268°
2026-05-05 18:14 49.17418 2.32032 8656 ft 294 kts 265°
2026-05-05 18:14 49.17187 2.28929 8386 ft 293 kts 265°
2026-05-05 18:14 49.16966 2.25845 8130 ft 291 kts 265°
2026-05-05 18:15 49.16756 2.22808 7864 ft 284 kts 265°
2026-05-05 18:15 49.16555 2.19837 7608 ft 279 kts 266°
2026-05-05 18:15 49.16294 2.16907 7354 ft 279 kts 258°
2026-05-05 18:15 49.15490 2.14229 7105 ft 280 kts 232°
2026-05-05 18:16 49.14007 2.12398 6897 ft 272 kts 204°
2026-05-05 18:16 49.12218 2.11751 6712 ft 261 kts 179°
2026-05-05 18:16 49.10468 2.12257 6397 ft 255 kts 154°
2026-05-05 18:16 49.08961 2.13615 6086 ft 251 kts 144°
2026-05-05 18:17 49.07383 2.14762 5748 ft 252 kts 159°
2026-05-05 18:17 49.05695 2.15506 5417 ft 252 kts 163°
2026-05-05 18:17 49.04002 2.16175 5129 ft 251 kts 163°
2026-05-05 18:17 49.02319 2.16871 4854 ft 249 kts 159°
2026-05-05 18:18 49.00927 2.18294 4546 ft 240 kts 124°
2026-05-05 18:18 49.00404 2.20589 4328 ft 226 kts 86°
2026-05-05 18:18 49.00593 2.22887 4209 ft 214 kts 77°
2026-05-05 18:18 49.00832 2.25088 4084 ft 206 kts 79°
2026-05-05 18:19 49.01011 2.27190 4027 ft 193 kts 80°
2026-05-05 18:19 49.01146 2.29139 3953 ft 179 kts 82°
2026-05-05 18:19 49.01303 2.31025 3572 ft 183 kts 79°
2026-05-05 18:19 49.01416 2.33031 3003 ft 195 kts 82°
2026-05-05 18:20 49.01516 2.35050 2702 ft 186 kts 81°
2026-05-05 18:20 49.01629 2.36946 2466 ft 173 kts 80°
2026-05-05 18:20 49.01726 2.38702 2226 ft 160 kts 80°
2026-05-05 18:20 49.01815 2.40324 2009 ft 147 kts 79°
2026-05-05 18:21 49.01893 2.41808 1808 ft 135 kts 79°
2026-05-05 18:21 49.01969 2.43206 1650 ft 131 kts 78°
2026-05-05 18:21 49.02046 2.44591 1471 ft 132 kts 78°
2026-05-05 18:21 49.02120 2.45970 1312 ft 133 kts 79°
2026-05-05 18:22 49.02196 2.47379 1102 ft 133 kts 66°
2026-05-05 18:22 49.02510 2.48660 849 ft 129 kts 57°
2026-05-05 18:22 49.02839 2.49916 746 ft 135 kts 68°
2026-05-05 18:22 49.03059 2.51291 764 ft 118 kts 70°
2026-05-05 18:23 49.03305 2.52415 717 ft 114 kts 60°
2026-05-05 18:23 49.03495 2.53624 575 ft 118 kts 80°
2026-05-05 18:23 49.03390 2.54832 568 ft 114 kts 96°
2026-05-05 18:23 49.03246 2.55958 558 ft 102 kts 87°
2026-05-05 18:24 49.03113 2.57096 364 ft 113 kts 96°
2026-05-05 18:24 49.03055 2.57912 404 ft 36 kts 93°
2026-05-05 18:24 49.03053 2.57964 403 ft 0 kts 93°